Погода в Львове

Погода в Львове : погода сейчас, прогноз погоды и архив. Всё, что Вы хотите узнать о погоде в Львове!

Поиск расширенной информации на нашем сайте:

Другие новости

Новости СМИ2

Главная страница сайта

Новости сайта

03.07.2017

Напоминаем, что на нашем специализированном сайте Метеоцентр.Азия вы можете получить высокодетализированные автоматические прогнозы погоды по пунктам России, СНГ и мира в авиационном формате (включающие направление и скорость ветра, видимость, явления погоды, количество и форму облачности, нижнюю и верхнюю границу облачности).


Погода в Львове - сегодня

Время (UTC), дата Ветер
(°,м/с) 
Видим.   Явления Облачность Т
(°С)
Тd
(°С)
f(%) Тe
(°С)
Pmin
(гПа)
dP
(гПа)
Po
(мм)
O2
(г/м3)
Тmin Tmax R s Состояние
почвы
21 17.08.18 тихо ()   10 км  {ливн. осадки}  8/5 1200 м кучево-дожд., средняя 
[Cb calv|Ac trans]
+15.9 +14 88 +23  1017.4  0.5  735  277           
00 18.08.18 тихо ()   9000 м  дымка{ливн. осадки}  3/0 средняя 
[Ac trans]
+15.1 +13.9 93 +22  1017.7  0.2  735  278      0.0     
03 18.08.18 тихо ()   8000 м  дымка{туман}  ясно 
+15.3 +14.3 94 +23  1017.7  0.1  735  277           
06 18.08.18 тихо ()   10 км  {туман}  ясно 
+19 +16.5 85 +31  1018  0.8  736  273  +13.9    0.0     
09 18.08.18 300 (СЗ) 10 км    6/6 800 м 
[Cu med, cong]
+23.5 +17.1 67 +37  1018.1  0.6  736  269           
12 18.08.18 010 (С) 10 км    8/8 1080 м кучево-дожд. 
[Cb calv]
+25.2 +15.8 56 +36  1017.7  -0.2  736  268           
15 18.08.18 360 (С) 10 км    8/4 1000 м средняя 
[Cu med, cong|Ac trans]
+26 +15.2 51 +36  1017  -0.6  735  267           
18 18.08.18 тихо ()   10 км    6/0 верхняя 
[Ci fib]
+19.7 +17.1 85 +33  1018.7  0.9  736  273    +27.3       
21 18.08.18 тихо ()   5000 м  дымка  4/0 верхняя 
[Ci fib]
+17.3 +15.8 91 +28  1019.9  0.9  737  276           
00 19.08.18 тихо ()   0800 м  туман  3/0 верхняя 
[Ci fib]
+15.9 +14.5 91 +24  1020.3  0.1  737  277           
03 19.08.18 тихо ()   1200 м  дымка{туман}  4/0 верхняя 
[Ci fib]
+15.3 +14.3 94 +23  1020.4  0.1  737  278           
06 19.08.18 тихо ()   10 км  {туман}  3/0 верхняя 
[Ci fib]
+19.9 +17.3 85 +33  1020.5  0.7  737  273  +14.9         
09 19.08.18 050 (СВ) 10 км    1/1 1000 м 
[Cu hum]
+25.1 +14.9 53 +34  1020.5  0.6  738  269           
12 19.08.18 050 (СВ) 10 км    6/6 1300 м 
[Cu hum]
+26.7 +13.8 45 +34  1019.3  -1  737  268           
15 19.08.18 360 (С) 10 км    4/4 1000 м 
[Cu hum]
+27.3 +13.4 42 +34  1018.4  -0.8  737  267           
18 19.08.18 тихо ()   10 км    6/0 средняя 
[Ac trans]
+19.9 +16.6 81 +32  1019.2  -0.1  736  273    +27.8       
21 19.08.18 тихо ()   10 км    3/0 верхняя 
[Ci fib]
+17.4 +15.5 89 +27  1019.4  -0.1  736  276           
00 20.08.18 тихо ()   10 км    ясно 
+15.9 +14.3 90 +24  1018.8  -0.8  736  277           
03 20.08.18 тихо ()   2100 м  дымка  3/0 верхняя 
[Ci fib]
+14.3 +13 92 +20  1018.8  -0.2  736  279           
06 20.08.18 тихо ()   10 км    3/0 верхняя 
[Ci fib]
+20.8 +17.2 80 +34  1017.6  -0.3  735  271  +14.1         
09 20.08.18 190 (Ю) 10 км    3/0 средняя 
[Ac trans]
+25.7 +15.4 53 +36  1016.8  -0.2  735  268           
12 20.08.18 180 (Ю) 10 км    4/4 1000 м 
[Cu hum]
+27.5 +14.9 46 +37  1015.5  -1  734  266           
15 20.08.18 290 (З) 10 км    3/3 1000 м 
[Cu hum]
+27.6 +11.6 37 +31  1014.5  -1  734  266           
18 20.08.18 тихо ()   9000 м  дым  3/0 верхняя 
[Ci fib]
+21.7 +17 75 +35  1014.5  -0.7  733  270    +28.7       
21 20.08.18 тихо ()   9000 м  дымка  3/0 верхняя 
[Ci fib]
+17.7 +15.7 88 +28  1015.2  0.2  733  274           
Время (UTC), дата Ветер
(°,м/с) 
Видим.   Явления Облачность Т
(°С)
Тd
(°С)
f(%) Тe
(°С)
Pmin
(гПа)
dP
(гПа)
Po
(мм)
O2
(г/м3)
Тmin Tmax R s Состояние
почвы

Для получения пояснительной информации подведите курсор к названию столбца.

ПОГОДА в Львове - архив

Всё, что Вы хотите узнать о погоде в Львове - удобно и подробно!

Выберите нужную дату (начиная с 1 января 2015* года) и нажмите кнопку "Найти".
Будут отображены архивные сводки погоды по пункту Львов, начиная с указанной даты.


Отображать данные в формате CSV (для использования в таблицах Excel)


Внимание! Наш архив погоды предназначен исключительно для личного некоммерческого использования в познавательных целях. Если Вам необходимы официальные справки о состоянии погоды (для производственных, юридических, коммерческих и т.п. целей), обращайтесь в органы Росгидромета.

*Примечание: данная дата относится к архиву по метеостанциям СССР (Россия, СНГ, Балтия).
Архив по метеостанциям Зарубежной Европы и Азии (кроме Китая) хранится 10 дней, по другим регионам земного шара (Китай, Африка, Америка, Австралия, Океания) - 1 день.

Львов - район местоположения метеостанции


Название, широта, долгота, высота метеостанции:
Львов 49.8°ш. 23.9°д. 323 м над ур. моря [Украина]

Дополнительная информация

В oтличие oт бoльшинства пoгoдных сайтoв мы публикуем пoдрoбную метеoинфoрмацию в детальнoм прoфессиoнальнoм фoрмате.

Характеристики температуры и влажнoсти вoздуха измеряются на высoте 2 м в тени вдали oт зданий и деревьев.
Скoрoсть ветра измеряется на высoте 10 м (на урoвне рoста челoвека скoрoсть ветра ниже в 1.5-2 раза). Если метеoстанция нахoдится в гoрoде или в лесу, тo скoрoсть ветра занижена на 2-4 м/с пo сравнению с oткрытым местoм. Скoрoсть ветра над акватoриями крупных рек и oзёр, а также на вершинах хoлмoв на 2-5 м/с выше, чем в oбычных услoвиях.
Атмoсфернoе давление в разных тoчках местнoсти мoжет значительнo oтличаться oт давления на метеoстанции, в зависимoсти oт услoвий рельефа (при пoдъёме на 10 м давление пoнижается примернo на 1 мм рт.ст.).